Location: Unspecified
(51.0950°N, 12.9690°E)
Time: 03:43:07
(UTC+00:00)

EO-79 - Pass Details

Date: 29 April 2024
Orbit: 562 x 575 km, 98.0° (Epoch: 27 May)

Event Time Altitude Azimuth Distance (km) Brightness Sun altitude
Rises 02:54:03 0° 10° (N) 2,802 ? -7.7°
Reaches altitude 10° 02:56:14 10° 5° (N) 1,900 ? -7.4°
Maximum altitude 03:00:14 51° 290° (WNW) 733 ? -6.9°
Drops below altitude 10° 03:04:12 10° 215° (SW) 1,887 ? -6.4°
Enters shadow 03:05:11 - 212° (SSW) 2,286 ? -6.2°
